Jackson, KY

4:13 AM EDT on July 23, 2017 (GMT -0400)
Carroll

Weather History for KJKL - July, 2013

Change the Weather History Date:

Monday, July 1, 2013

  Actual Average Record
Temperature  
Mean Temperature 72 °F 75 °F  
Max Temperature 82 °F 84 °F 98 °F (2012)
Min Temperature 62 °F 66 °F 53 °F (1988)
Degree Days  
Heating Degree Days 0 0  
Month to date heating degree days 0 0  
Since 1 June heating degree days 0 12  
Since 1 July heating degree days 0 0  
Cooling Degree Days 7 10  
Month to date cooling degree days 7 10  
Year to date cooling degree days 379 369  
Since 1 June cooling degree days 231 233  
Growing Degree Days 22 (Base 50)    
Moisture  
Dew Point 64 °F    
Average Humidity 79    
Maximum Humidity 100    
Minimum Humidity 58    
Precipitation  
Precipitation 0.51 in 0.15 in 1.11 in (2005)
Month to date precipitation 0.51 0.15  
Year to date precipitation 27.07 25.36  
Snow  
Snow 0.00 in 0.00 in - ()
Month to date snowfall 0.0 0.0  
Since 1 June snowfall 0.0 0.0  
Since 1 July snowfall 0.0 0.0  
Snow Depth 0.00 in    
Sea Level Pressure  
Sea Level Pressure 29.86 in    
Wind  
Wind Speed 1 mph (SSW)    
Max Wind Speed 14 mph    
Max Gust Speed 26 mph    
Visibility 4 miles    
Events Fog , Rain , Thunderstorm    
T = Trace of Precipitation, MM = Missing Value Source: NWS Daily Summary

Daily Weather History Graph

Daily Weather History Graph

Search for Another Location

Airport or City:

Trip Planner

Search our weather history database for the weather conditions in past years. The results will help you decide how hot, cold, wet, or windy it might be!

Date:

Astronomy

Jul. 01, 2013 Rise Set
Actual Time 6:15 AM EDT 8:58 PM EDT
Civil Twilight 5:44 AM EDT 9:29 PM EDT
Nautical Twilight 5:05 AM EDT 10:08 PM EDT
Astronomical Twilight 4:22 AM EDT 10:51 PM EDT
Moon 1:40 AM EDT (7/1) 3:16 PM EDT (7/1)
Length of Visible Light 15h 44m
Length of Day
14h 42m
Waning Crescent, 35% of the Moon is Illuminated
Jul 1
Waning Crescent
Jul 8
New
Jul 15
First Quarter
Jul 22
Full
Jul 29
Last Quarter

Hourly Weather History & Observations

Time (EDT) Temp. Heat Index Dew Point Humidity Pressure Visibility Wind Dir Wind Speed Gust Speed Precip Events Conditions
12:19 AM 66.2 °F - 64.4 °F 94% 29.86 in 10.0 mi SE 4.6 mph - N/A Thunderstorm Overcast
12:45 AM 66.2 °F - 64.4 °F 94% 29.86 in 5.0 mi Variable 4.6 mph - 0.02 in Rain Light Rain
12:53 AM 66.0 °F - 63.0 °F 90% 29.81 in 4.0 mi SSE 8.1 mph - 0.02 in Rain Rain
1:53 AM 66.0 °F - 63.0 °F 90% 29.78 in 10.0 mi Variable 4.6 mph - 0.12 in Rain Light Rain
2:29 AM 64.4 °F - 62.6 °F 94% 29.82 in 2.0 mi Calm Calm - 0.00 in   Overcast
2:31 AM 64.4 °F - 62.6 °F 94% 29.82 in 1.5 mi Calm Calm - 0.00 in   Overcast
2:38 AM 64.4 °F - 62.6 °F 94% 29.81 in 2.5 mi Calm Calm - 0.00 in   Overcast
2:45 AM 64.4 °F - 62.6 °F 94% 29.81 in 9.0 mi Calm Calm - 0.00 in   Overcast
2:53 AM 64.9 °F - 63.0 °F 93% 29.77 in 8.0 mi Calm Calm - 0.00 in   Overcast
3:31 AM 64.4 °F - 62.6 °F 94% 29.82 in 2.0 mi NW 3.5 mph - N/A   Clear
3:34 AM 64.4 °F - 62.6 °F 94% 29.82 in 1.5 mi NW 4.6 mph - N/A   Partly Cloudy
3:38 AM 64.4 °F - 62.6 °F 94% 29.83 in 2.0 mi Calm Calm - N/A   Scattered Clouds
3:50 AM 64.4 °F - 62.6 °F 94% 29.84 in 4.0 mi Calm Calm - N/A   Mostly Cloudy
3:53 AM 64.0 °F - 63.0 °F 96% 29.81 in 3.0 mi Calm Calm - N/A   Mostly Cloudy
3:58 AM 64.4 °F - 62.6 °F 94% 29.84 in 1.8 mi Calm Calm - N/A   Overcast
4:05 AM 64.4 °F - 62.6 °F 94% 29.84 in 1.2 mi Calm Calm - N/A   Overcast
4:15 AM 64.4 °F - 62.6 °F 94% 29.84 in 3.0 mi Calm Calm - N/A   Mostly Cloudy
4:20 AM 64.4 °F - 62.6 °F 94% 29.84 in 1.8 mi Calm Calm - N/A   Overcast
4:27 AM 64.4 °F - 62.6 °F 94% 29.84 in 1.5 mi Calm Calm - N/A   Mostly Cloudy
4:29 AM 64.4 °F - 62.6 °F 94% 29.84 in 2.0 mi Calm Calm - N/A   Mostly Cloudy
4:38 AM 64.4 °F - 62.6 °F 94% 29.84 in 3.0 mi Calm Calm - N/A   Mostly Cloudy
4:53 AM 64.0 °F - 63.0 °F 96% 29.80 in 3.0 mi Calm Calm - N/A   Partly Cloudy
5:07 AM 64.4 °F - 62.6 °F 94% 29.84 in 1.5 mi Calm Calm - N/A   Partly Cloudy
5:09 AM 64.4 °F - 62.6 °F 94% 29.84 in 0.8 mi Calm Calm - N/A   Mist
5:53 AM 63.0 °F - 62.1 °F 97% 29.81 in 0.8 mi Calm Calm - N/A   Mist
5:55 AM 62.6 °F - 62.6 °F 100% 29.84 in 1.2 mi Calm Calm - N/A   Scattered Clouds
5:58 AM 62.6 °F - 62.6 °F 100% 29.84 in 2.0 mi Calm Calm - N/A   Scattered Clouds
6:05 AM 62.6 °F - 62.6 °F 100% 29.85 in 1.8 mi Calm Calm - N/A   Mostly Cloudy
6:08 AM 62.6 °F - 62.6 °F 100% 29.85 in 0.8 mi Calm Calm - N/A   Mist
6:21 AM 64.4 °F - 62.6 °F 94% 29.85 in 2.0 mi ESE 3.5 mph - N/A   Scattered Clouds
6:28 AM 64.4 °F - 62.6 °F 94% 29.84 in 5.0 mi Calm Calm - N/A   Partly Cloudy
6:53 AM 64.0 °F - 63.0 °F 96% 29.82 in 5.0 mi Calm Calm - N/A   Clear
7:12 AM 64.4 °F - 62.6 °F 94% 29.86 in 2.5 mi Calm Calm - N/A   Clear
7:25 AM 64.4 °F - 64.4 °F 100% 29.86 in 1.8 mi Calm Calm - N/A   Partly Cloudy
7:31 AM 66.2 °F - 64.4 °F 94% 29.86 in 3.0 mi Calm Calm - N/A   Clear
7:53 AM 66.9 °F - 64.9 °F 93% 29.83 in 4.0 mi Calm Calm - N/A   Clear
8:53 AM 69.1 °F - 66.0 °F 90% 29.84 in 6.0 mi Calm Calm - N/A   Clear
9:05 AM 69.8 °F - 66.2 °F 88% 29.88 in 10.0 mi Calm Calm - N/A   Partly Cloudy
9:33 AM 71.6 °F - 66.2 °F 83% 29.88 in 10.0 mi Calm Calm - N/A   Mostly Cloudy
9:42 AM 71.6 °F - 66.2 °F 83% 29.88 in 10.0 mi Calm Calm - N/A   Scattered Clouds
9:53 AM 72.0 °F - 68.0 °F 87% 29.85 in 10.0 mi Calm Calm - N/A   Partly Cloudy
10:53 AM 73.9 °F - 66.0 °F 76% 29.86 in 10.0 mi Variable 3.5 mph - N/A   Clear
11:53 AM 75.9 °F - 64.9 °F 69% 29.86 in 10.0 mi Calm Calm - N/A   Clear
12:22 PM 75.2 °F - 64.4 °F 69% 29.90 in 1.8 mi Calm Calm - N/A   Haze
12:35 PM 77.0 °F - 64.4 °F 65% 29.90 in 10.0 mi Calm Calm - N/A   Partly Cloudy
12:53 PM 78.1 °F - 64.9 °F 64% 29.86 in 10.0 mi SE 3.5 mph - N/A   Partly Cloudy
1:53 PM 80.1 °F 81.7 °F 64.0 °F 58% 29.83 in 10.0 mi Calm Calm - N/A   Partly Cloudy
2:53 PM 82.0 °F 84.5 °F 66.9 °F 60% 29.82 in 10.0 mi Calm Calm - N/A   Scattered Clouds
3:43 PM 69.8 °F - 66.2 °F 88% 29.87 in 1.5 mi Calm Calm - 0.01 in Rain Heavy Rain
3:53 PM 72.0 °F - 66.9 °F 84% 29.84 in 1.5 mi Calm Calm - 0.14 in Rain Light Rain
3:55 PM 71.6 °F - 68.0 °F 88% 29.87 in 3.0 mi Calm Calm - 0.00 in Rain Light Rain
4:53 PM 75.0 °F - 70.0 °F 84% 29.82 in 10.0 mi Calm Calm - 0.00 in   Clear
5:53 PM 66.0 °F - 64.0 °F 93% 29.86 in 3.0 mi West 12.7 mph 26.5 mph 0.04 in Rain , Thunderstorm Heavy Rain
5:57 PM 64.4 °F - 62.6 °F 94% 29.91 in 2.5 mi West 9.2 mph 26.5 mph 0.01 in Rain , Thunderstorm Rain
6:01 PM 64.4 °F - 62.6 °F 94% 29.90 in 1.5 mi West 9.2 mph 26.5 mph 0.03 in Rain , Thunderstorm Heavy Rain
6:07 PM 62.6 °F - 62.6 °F 100% 29.91 in 0.5 mi Variable 6.9 mph 20.7 mph 0.13 in Fog , Rain , Thunderstorm Heavy Thunderstorms and Rain
6:18 PM 62.6 °F - 62.6 °F 100% 29.90 in 2.0 mi WNW 6.9 mph - 0.24 in Rain , Thunderstorm Light Thunderstorms and Rain
6:26 PM 64.4 °F - 62.6 °F 94% 29.91 in 10.0 mi Variable 3.5 mph - 0.24 in Rain , Thunderstorm Light Rain
6:53 PM 64.9 °F - 63.0 °F 93% 29.91 in 9.0 mi Calm Calm - 0.24 in   Overcast
7:17 PM 66.2 °F - 64.4 °F 94% 29.93 in 10.0 mi Calm Calm - N/A   Mostly Cloudy
7:53 PM 66.0 °F - 63.0 °F 90% 29.90 in 7.0 mi Calm Calm - N/A   Mostly Cloudy
8:53 PM 64.0 °F - 63.0 °F 96% 29.91 in 2.5 mi Calm Calm - N/A   Partly Cloudy
8:55 PM 64.4 °F - 62.6 °F 94% 29.95 in 1.2 mi Calm Calm - N/A   Partly Cloudy
8:58 PM 64.4 °F - 62.6 °F 94% 29.95 in 0.8 mi Calm Calm - N/A   Mist
9:53 PM 63.0 °F - 62.1 °F 97% 29.91 in 0.8 mi Calm Calm - N/A   Mist
9:57 PM 62.6 °F - 62.6 °F 100% 29.94 in 1.8 mi Calm Calm - N/A   Mostly Cloudy
9:59 PM 62.6 °F - 62.6 °F 100% 29.94 in 4.0 mi Calm Calm - N/A   Mostly Cloudy
10:08 PM 62.6 °F - 62.6 °F 100% 29.95 in 10.0 mi Calm Calm - N/A   Scattered Clouds
10:44 PM 62.6 °F - 62.6 °F 100% 29.94 in 1.5 mi Calm Calm - N/A   Partly Cloudy
10:53 PM 63.0 °F - 62.1 °F 97% 29.91 in 1.5 mi Calm Calm - N/A   Scattered Clouds
10:56 PM 62.6 °F - 62.6 °F 100% 29.95 in 4.0 mi SE 3.5 mph - N/A   Partly Cloudy
11:33 PM 62.6 °F - 62.6 °F 100% 29.95 in 1.2 mi ESE 3.5 mph - N/A   Mostly Cloudy
11:41 PM 62.6 °F - 62.6 °F 100% 29.95 in 0.5 mi Calm Calm - N/A Fog Fog
11:53 PM 63.0 °F - 62.1 °F 97% 29.91 in 0.5 mi Variable 3.5 mph - N/A Fog Fog